Time,TemperatureF,DewpointF,PressureIn,WindDirection,WindDirectionDegrees,WindSpeedMPH,WindSpeedGustMPH,Humidity,HourlyPrecipIn,Conditions,Clouds,dailyrainin,SoftwareType,DateUTC
2013-06-12 00:16:00,69.4,63.3,29.85,East,87,1.0,3.0,81,0.00,,---,0.00,VWS V14.01,2013-06-12 04:16:00,
2013-06-12 00:31:00,69.4,63.3,29.85,East,87,0.0,2.0,81,0.00,,---,0.00,VWS V14.01,2013-06-12 04:31:00,
2013-06-12 00:46:00,69.4,63.7,29.83,East,94,1.0,5.0,82,0.00,,---,0.00,VWS V14.01,2013-06-12 04:46:00,
2013-06-12 01:16:00,69.1,64.4,29.85,ENE,65,0.0,2.0,85,0.00,,---,0.00,VWS V14.01,2013-06-12 05:16:00,
2013-06-12 01:31:00,69.1,64.7,29.83,ENE,66,0.0,3.0,86,0.00,,---,0.00,VWS V14.01,2013-06-12 05:31:00,
2013-06-12 01:46:00,69.5,65.1,29.85,NE,55,2.0,4.0,86,0.00,,---,0.00,VWS V14.01,2013-06-12 05:46:00,
2013-06-12 02:31:00,68.7,65.0,29.82,NE,55,2.0,3.0,88,0.00,,---,0.00,VWS V14.01,2013-06-12 06:31:00,
2013-06-12 02:46:00,68.4,65.0,29.84,NE,55,0.0,2.0,89,0.00,,---,0.00,VWS V14.01,2013-06-12 06:46:00,
2013-06-12 03:01:00,68.1,64.7,29.84,NE,55,0.0,1.0,89,0.00,,---,0.00,VWS V14.01,2013-06-12 07:01:00,
2013-06-12 03:16:00,67.5,64.5,29.86,NE,55,0.0,1.0,90,0.00,,---,0.00,VWS V14.01,2013-06-12 07:16:00,
2013-06-12 03:31:00,67.1,64.4,29.87,NE,55,0.0,1.0,91,0.00,,---,0.00,VWS V14.01,2013-06-12 07:31:00,
2013-06-12 03:46:00,67.2,64.8,29.86,NE,55,0.0,2.0,92,0.00,,---,0.00,VWS V14.01,2013-06-12 07:46:00,
2013-06-12 04:16:00,67.6,65.2,29.86,NE,55,0.0,0.0,92,0.00,,---,0.00,VWS V14.01,2013-06-12 08:16:00,
2013-06-12 04:46:00,67.4,65.0,29.86,NE,55,0.0,0.0,92,0.00,,---,0.00,VWS V14.01,2013-06-12 08:46:00,
2013-06-12 05:01:00,67.1,64.7,29.86,NE,55,0.0,0.0,92,0.00,,---,0.00,VWS V14.01,2013-06-12 09:01:00,
2013-06-12 05:16:00,66.9,64.8,29.84,NE,55,0.0,2.0,93,0.00,,---,0.00,VWS V14.01,2013-06-12 09:16:00,
2013-06-12 05:31:00,66.7,64.6,29.84,NE,55,0.0,2.0,93,0.00,,---,0.00,VWS V14.01,2013-06-12 09:31:00,
2013-06-12 05:46:00,66.7,64.6,29.84,NE,55,1.0,2.0,93,0.00,,---,0.00,VWS V14.01,2013-06-12 09:46:00,
2013-06-12 06:01:00,66.8,64.7,29.83,NW,323,0.0,2.0,93,0.00,,---,0.00,VWS V14.01,2013-06-12 10:01:00,
2013-06-12 06:16:00,66.5,64.4,29.84,NW,323,0.0,0.0,93,0.00,,---,0.00,VWS V14.01,2013-06-12 10:16:00,
2013-06-12 06:31:00,66.2,64.4,29.84,NW,323,0.0,4.0,94,0.00,,---,0.00,VWS V14.01,2013-06-12 10:31:00,
2013-06-12 06:46:00,66.0,64.2,29.86,NW,322,0.0,2.0,94,0.00,,---,0.00,VWS V14.01,2013-06-12 10:46:00,
2013-06-12 07:01:00,66.2,64.4,29.86,NW,322,0.0,1.0,94,0.00,,---,0.00,VWS V14.01,2013-06-12 11:01:00,
2013-06-12 07:16:00,66.4,64.6,29.85,NW,313,0.0,2.0,94,0.00,,---,0.00,VWS V14.01,2013-06-12 11:16:00,
2013-06-12 07:31:00,66.9,65.1,29.85,NW,309,0.0,2.0,94,0.00,,---,0.00,VWS V14.01,2013-06-12 11:31:00,
2013-06-12 07:46:00,67.8,66.0,29.86,North,355,0.0,1.0,94,0.00,,---,0.00,VWS V14.01,2013-06-12 11:46:00,
2013-06-12 08:01:00,69.0,66.6,29.88,SSW,196,0.0,2.0,92,0.00,,---,0.00,VWS V14.01,2013-06-12 12:01:00,
2013-06-12 08:16:00,69.9,66.8,29.88,SSW,196,1.0,3.0,90,0.00,,---,0.00,VWS V14.01,2013-06-12 12:16:00,
2013-06-12 08:31:00,70.6,67.2,29.88,South,182,1.0,2.0,89,0.00,,---,0.00,VWS V14.01,2013-06-12 12:31:00,
2013-06-12 08:46:00,70.7,67.0,29.88,SSE,157,2.0,3.0,88,0.00,,---,0.00,VWS V14.01,2013-06-12 12:46:00,
2013-06-12 09:01:00,71.2,67.5,29.89,SSE,158,1.0,4.0,88,0.00,,---,0.00,VWS V14.01,2013-06-12 13:01:00,
2013-06-12 09:16:00,71.5,67.8,29.88,SSW,204,2.0,4.0,88,0.00,,---,0.00,VWS V14.01,2013-06-12 13:16:00,
2013-06-12 09:31:00,71.5,67.8,29.87,SSW,205,2.0,4.0,88,0.00,,---,0.00,VWS V14.01,2013-06-12 13:31:00,
2013-06-12 09:46:00,71.5,67.8,29.85,SSW,199,2.0,7.0,88,0.00,,---,0.00,VWS V14.01,2013-06-12 13:46:00,
2013-06-12 10:01:00,71.9,68.2,29.87,West,269,3.0,7.0,88,0.00,,---,0.00,VWS V14.01,2013-06-12 14:01:00,
2013-06-12 10:16:00,73.4,69.0,29.88,West,275,1.0,6.0,86,0.00,,---,0.00,VWS V14.01,2013-06-12 14:16:00,
2013-06-12 10:31:00,74.0,68.2,29.88,West,277,3.0,7.0,82,0.00,,---,0.00,VWS V14.01,2013-06-12 14:31:00,
2013-06-12 10:46:00,74.9,68.7,29.87,SW,229,2.0,6.0,81,0.00,,---,0.00,VWS V14.01,2013-06-12 14:46:00,
2013-06-12 11:01:00,76.3,68.6,29.86,SSE,162,2.0,7.0,77,0.00,,---,0.00,VWS V14.01,2013-06-12 15:01:00,
2013-06-12 11:16:00,77.4,68.9,29.85,SE,143,4.0,6.0,75,0.00,,---,0.00,VWS V14.01,2013-06-12 15:16:00,
2013-06-12 11:31:00,77.7,68.8,29.84,SSW,192,4.0,8.0,74,0.00,,---,0.00,VWS V14.01,2013-06-12 15:31:00,
2013-06-12 11:46:00,78.0,69.4,29.81,South,191,4.0,9.0,75,0.00,,---,0.00,VWS V14.01,2013-06-12 15:46:00,
2013-06-12 12:01:00,77.6,69.4,29.85,SSW,203,3.0,11.0,76,0.00,,---,0.00,VWS V14.01,2013-06-12 16:01:00,
2013-06-12 12:16:00,77.7,69.5,29.82,ESE,117,1.0,7.0,76,0.00,,---,0.00,VWS V14.01,2013-06-12 16:16:00,
2013-06-12 12:31:00,77.9,69.3,29.83,SE,138,5.0,6.0,75,0.00,,---,0.00,VWS V14.01,2013-06-12 16:31:00,
2013-06-12 12:46:00,77.2,69.8,29.81,SSE,156,1.0,8.0,78,0.00,,---,0.00,VWS V14.01,2013-06-12 16:46:00,
2013-06-12 13:01:00,77.5,70.5,29.77,SE,133,5.0,7.0,79,0.00,,---,0.00,VWS V14.01,2013-06-12 17:01:00,
2013-06-12 13:16:00,78.2,70.8,29.76,SE,130,2.0,10.0,78,0.00,,---,0.00,VWS V14.01,2013-06-12 17:16:00,
2013-06-12 13:31:00,78.9,71.8,29.76,SE,145,3.0,9.0,79,0.00,,---,0.00,VWS V14.01,2013-06-12 17:31:00,
2013-06-12 13:46:00,79.8,72.7,29.74,SE,139,0.0,9.0,79,0.00,,---,0.00,VWS V14.01,2013-06-12 17:46:00,
2013-06-12 14:01:00,79.8,71.9,29.73,SSE,153,4.0,10.0,77,0.00,,---,0.00,VWS V14.01,2013-06-12 18:01:00,
2013-06-12 14:16:00,79.1,71.7,29.74,SSW,207,1.0,7.0,78,0.00,,---,0.00,VWS V14.01,2013-06-12 18:16:00,
2013-06-12 14:31:00,79.3,72.2,29.75,SSE,167,0.0,7.0,79,0.00,,---,0.00,VWS V14.01,2013-06-12 18:31:00,
2013-06-12 14:46:00,79.3,72.6,29.75,ESE,109,3.0,9.0,80,0.00,,---,0.00,VWS V14.01,2013-06-12 18:46:00,
2013-06-12 15:01:00,79.7,73.0,29.75,SSW,195,3.0,11.0,80,0.00,,---,0.00,VWS V14.01,2013-06-12 19:01:00,
2013-06-12 15:16:00,79.9,73.6,29.77,SSE,167,0.0,6.0,81,0.00,,---,0.00,VWS V14.01,2013-06-12 19:16:00,
2013-06-12 15:31:00,81.1,74.3,29.77,South,169,1.0,5.0,80,0.00,,---,0.00,VWS V14.01,2013-06-12 19:31:00,
2013-06-12 15:46:00,82.4,74.9,29.77,SE,131,3.0,6.0,78,0.00,,---,0.00,VWS V14.01,2013-06-12 19:46:00,
2013-06-12 16:01:00,82.7,74.0,29.78,WSW,252,2.0,7.0,75,0.00,,---,0.00,VWS V14.01,2013-06-12 20:01:00,
2013-06-12 16:16:00,84.4,74.8,29.77,WSW,239,6.0,10.0,73,0.00,,---,0.00,VWS V14.01,2013-06-12 20:16:00,
2013-06-12 16:31:00,85.2,73.0,29.76,WSW,242,5.0,10.0,67,0.00,,---,0.00,VWS V14.01,2013-06-12 20:31:00,
2013-06-12 16:46:00,84.6,73.3,29.76,WSW,239,4.0,10.0,69,0.00,,---,0.00,VWS V14.01,2013-06-12 20:46:00,
2013-06-12 17:01:00,85.2,74.7,29.75,West,268,2.0,6.0,71,0.00,,---,0.00,VWS V14.01,2013-06-12 21:01:00,
2013-06-12 17:16:00,84.9,73.2,29.74,West,259,1.0,10.0,68,0.00,,---,0.00,VWS V14.01,2013-06-12 21:16:00,
2013-06-12 17:31:00,86.5,74.2,29.73,South,169,0.0,5.0,67,0.00,,---,0.00,VWS V14.01,2013-06-12 21:31:00,
2013-06-12 17:46:00,86.0,73.8,29.72,WNW,302,2.0,7.0,67,0.00,,---,0.00,VWS V14.01,2013-06-12 21:46:00,
2013-06-12 18:01:00,86.6,72.5,29.70,WSW,237,5.0,7.0,63,0.00,,---,0.00,VWS V14.01,2013-06-12 22:01:00,
2013-06-12 18:16:00,85.8,73.6,29.70,West,259,3.0,5.0,67,0.00,,---,0.00,VWS V14.01,2013-06-12 22:16:00,
2013-06-12 18:31:00,85.8,72.7,29.69,West,261,2.0,5.0,65,0.00,,---,0.00,VWS V14.01,2013-06-12 22:31:00,
2013-06-12 18:46:00,85.4,72.8,29.69,West,261,0.0,3.0,66,0.00,,---,0.00,VWS V14.01,2013-06-12 22:46:00,
2013-06-12 19:01:00,84.7,73.0,29.69,West,261,0.0,3.0,68,0.00,,---,0.00,VWS V14.01,2013-06-12 23:01:00,
2013-06-12 19:16:00,84.3,74.3,29.68,ESE,119,2.0,3.0,72,0.00,,---,0.00,VWS V14.01,2013-06-12 23:16:00,
2013-06-12 19:31:00,83.1,74.0,29.67,ESE,116,1.0,4.0,74,0.00,,---,0.00,VWS V14.01,2013-06-12 23:31:00,
2013-06-12 19:46:00,82.4,74.1,29.66,ESE,113,1.0,2.0,76,0.00,,---,0.00,VWS V14.01,2013-06-12 23:46:00,
2013-06-12 20:01:00,81.8,74.3,29.65,ESE,113,0.0,1.0,78,0.00,,---,0.00,VWS V14.01,2013-06-13 00:01:00,
2013-06-12 20:16:00,81.0,74.6,29.64,ESE,113,1.0,2.0,81,0.00,,---,0.00,VWS V14.01,2013-06-13 00:16:00,
2013-06-12 20:31:00,80.1,73.8,29.64,SSE,155,2.0,4.0,81,0.00,,---,0.00,VWS V14.01,2013-06-13 00:31:00,
2013-06-12 20:46:00,79.7,73.7,29.64,SE,139,1.0,4.0,82,0.00,,---,0.00,VWS V14.01,2013-06-13 00:46:00,
2013-06-12 21:01:00,79.3,73.7,29.63,SSW,192,5.0,13.0,83,0.00,,---,0.00,VWS V14.01,2013-06-13 01:01:00,
2013-06-12 21:16:00,76.0,70.5,29.66,SW,226,12.0,23.0,83,0.00,,---,0.00,VWS V14.01,2013-06-13 01:16:00,
2013-06-12 21:31:00,72.3,68.6,29.59,ESE,119,10.0,14.0,88,0.01,,---,0.01,VWS V14.01,2013-06-13 01:31:00,
2013-06-12 21:46:00,71.2,68.4,29.61,South,173,4.0,14.0,91,0.02,,---,0.02,VWS V14.01,2013-06-13 01:46:00,
2013-06-12 22:01:00,70.5,67.8,29.63,South,173,3.0,17.0,91,0.03,,---,0.03,VWS V14.01,2013-06-13 02:01:00,
2013-06-12 22:16:00,69.6,67.2,29.63,South,182,1.0,10.0,92,0.05,,---,0.05,VWS V14.01,2013-06-13 02:16:00,
2013-06-12 22:31:00,68.9,66.8,29.62,SE,140,6.0,13.0,93,0.07,,---,0.07,VWS V14.01,2013-06-13 02:31:00,
2013-06-12 22:46:00,68.8,66.7,29.64,SE,133,1.0,7.0,93,0.08,,---,0.09,VWS V14.01,2013-06-13 02:46:00,
2013-06-12 23:01:00,68.7,66.6,29.60,East,90,3.0,5.0,93,0.09,,---,0.11,VWS V14.01,2013-06-13 03:01:00,
2013-06-12 23:16:00,68.7,66.9,29.62,NE,44,1.0,11.0,94,0.10,,---,0.13,VWS V14.01,2013-06-13 03:16:00,
2013-06-12 23:31:00,66.7,64.6,29.65,SE,142,3.0,11.0,93,0.10,,---,0.15,VWS V14.01,2013-06-13 03:31:00,
2013-06-12 23:46:00,64.7,62.6,29.69,South,175,4.0,11.0,93,0.10,,---,0.17,VWS V14.01,2013-06-13 03:46:00,